Weather History for Perry, IA

Change the Weather History Date:

Tuesday, November 20, 2012

  Actual Average Record
Temperature  
Mean Temperature 49 °F -  
Max Temperature 62 °F 46 °F 66 °F (1975)
Min Temperature 36 °F 25 °F 6 °F (1950)
Degree Days  
Heating Degree Days 16    
Moisture  
Dew Point 35 °F    
Average Humidity 68    
Maximum Humidity 93    
Minimum Humidity 30    
Precipitation  
Precipitation 0.00 in - - ()
Sea Level Pressure  
Sea Level Pressure 30.15 in    
Wind  
Wind Speed 7 mph (West)    
Max Wind Speed 10 mph    
Max Gust Speed -    
Visibility 8 miles    
Events      
Averages and records for this station are not official NWS values.
T = Trace of Precipitation, MM = Missing Value Source: NWS Daily Summary

Daily Weather History Graph

Daily Weather History Graph

Search for Another Location

Airport:

Trip Planner

Search our weather history database for the weather conditions in past years. The results will help you decide how hot, cold, wet, or windy it might be!

Date:

Astronomy

Nov. 20, 2012 Rise Set
Actual Time 7:12 AM CST 4:51 PM CST
Civil Twilight 6:42 AM CST 5:22 PM CST
Nautical Twilight 6:08 AM CST 5:56 PM CST
Astronomical Twilight 5:35 AM CST 6:29 PM CST
Moon 12:44 PM CST (11/20) No Moon Set
Length of Visible Light 10h 39m
Length of Day
9h 38m
First Quarter, 51% of the Moon is Illuminated
Nov 20
First Quarter
Nov 28
Full
Dec 6
Last Quarter
Dec 13
New
Dec 19
First Quarter

Hourly Weather History & Observations

Time (CST) Temp. Windchill Dew Point Humidity Pressure Visibility Wind Dir Wind Speed Gust Speed Precip Events Conditions
12:15 AM 42.8 °F 38.6 °F 37.8 °F 82% 30.07 in 7.0 mi WNW 6.9 mph - N/A   Clear
12:35 AM 42.6 °F 37.8 °F 37.8 °F 83% 30.07 in 7.0 mi NW 8.1 mph - N/A   Clear
12:55 AM 43.0 °F 38.2 °F 37.8 °F 82% 30.07 in 7.0 mi NW 8.1 mph - N/A   Clear
1:15 AM 43.7 °F 38.6 °F 37.9 °F 80% 30.08 in 7.0 mi NW 9.2 mph - N/A   Clear
1:35 AM 43.7 °F 38.1 °F 37.8 °F 80% 30.08 in 10.0 mi NNW 10.4 mph - N/A   Clear
1:55 AM 42.8 °F 37.5 °F 37.4 °F 81% 30.09 in 7.0 mi NNW 9.2 mph - N/A   Clear
2:15 AM 41.9 °F 36.3 °F 37.2 °F 83% 30.09 in 7.0 mi NW 9.2 mph - N/A   Clear
2:35 AM 41.9 °F 36.9 °F 37.0 °F 83% 30.09 in 7.0 mi NW 8.1 mph - N/A   Clear
5:16 AM 37.4 °F 32.1 °F 35.6 °F 93% 30.13 in 4.0 mi NW 6.9 mph - N/A   Clear
6:15 AM 37.4 °F 32.1 °F 34.5 °F 89% 30.15 in 4.0 mi NW 6.9 mph - N/A   Clear
6:35 AM 36.5 °F 31.0 °F 33.8 °F 90% 30.16 in 4.0 mi NW 6.9 mph - N/A   Clear
6:55 AM 36.5 °F 31.0 °F 33.8 °F 90% 30.16 in 3.0 mi NW 6.9 mph - N/A   Clear
7:15 AM 36.0 °F 29.6 °F 33.4 °F 91% 30.17 in 3.0 mi NW 8.1 mph - N/A   Clear
7:35 AM 36.5 °F 31.0 °F 33.8 °F 90% 30.17 in 4.0 mi NW 6.9 mph - N/A   Clear
7:55 AM 36.5 °F 30.3 °F 33.8 °F 90% 30.17 in 3.0 mi NW 8.1 mph - N/A   Clear
8:15 AM 37.8 °F 32.5 °F 34.7 °F 89% 30.18 in 4.0 mi NW 6.9 mph - N/A   Clear
8:35 AM 39.2 °F 33.6 °F 35.6 °F 87% 30.18 in 4.0 mi NW 8.1 mph - N/A   Clear
8:55 AM 40.3 °F 34.9 °F 36.1 °F 85% 30.18 in 5.0 mi NW 8.1 mph - N/A   Clear
9:15 AM 41.5 °F 36.4 °F 36.7 °F 83% 30.19 in 5.0 mi NNW 8.1 mph - N/A   Haze
9:35 AM 43.2 °F 38.4 °F 37.6 °F 81% 30.19 in 5.0 mi NNW 8.1 mph - N/A   Haze
9:55 AM 44.8 °F 40.4 °F 38.5 °F 79% 30.19 in 7.0 mi NNW 8.1 mph - N/A   Clear
10:15 AM 46.4 °F 42.9 °F 39.0 °F 75% 30.20 in 7.0 mi NNW 6.9 mph - N/A   Clear
10:35 AM 48.2 °F - 39.2 °F 71% 30.20 in 7.0 mi NNW 6.9 mph - N/A   Clear
10:55 AM 49.8 °F - 39.9 °F 69% 30.19 in 7.0 mi NW 5.8 mph - N/A   Clear
11:15 AM 51.3 °F - 40.1 °F 66% 30.18 in 10.0 mi NW 4.6 mph - N/A   Clear
11:35 AM 52.5 °F - 40.5 °F 64% 30.18 in 10.0 mi NNW 5.8 mph - N/A   Clear
11:55 AM 54.5 °F - 40.5 °F 59% 30.17 in 10.0 mi NW 3.5 mph - N/A   Clear
12:15 PM 55.6 °F - 40.3 °F 56% 30.17 in 10.0 mi NW 4.6 mph - N/A   Clear
12:35 PM 57.0 °F - 40.5 °F 54% 30.17 in 10.0 mi WNW 3.5 mph - N/A   Clear
12:55 PM 58.1 °F - 40.6 °F 52% 30.16 in 10.0 mi WNW 5.8 mph - N/A   Clear
1:15 PM 59.2 °F - 40.3 °F 50% 30.15 in 10.0 mi WNW 5.8 mph - N/A   Clear
1:35 PM 60.1 °F - 39.9 °F 47% 30.15 in 10.0 mi WNW 5.8 mph - N/A   Clear
2:15 PM 61.9 °F - 37.8 °F 41% 30.14 in 10.0 mi West 4.6 mph - N/A   Clear
2:35 PM 62.1 °F - 35.4 °F 37% 30.14 in 10.0 mi West 5.8 mph - N/A   Clear
2:55 PM 62.2 °F - 32.9 °F 33% 30.14 in 10.0 mi Calm Calm - N/A   Clear
3:15 PM 62.8 °F - 31.3 °F 31% 30.13 in 10.0 mi West 4.6 mph - N/A   Clear
3:35 PM 62.6 °F - 32.0 °F 32% 30.13 in 10.0 mi West 3.5 mph - N/A   Clear
3:55 PM 61.9 °F - 29.7 °F 30% 30.14 in 10.0 mi WSW 3.5 mph - N/A   Clear
4:15 PM 61.2 °F - 30.6 °F 32% 30.13 in 10.0 mi Calm Calm - N/A   Clear
4:35 PM 58.8 °F - 33.3 °F 38% 30.13 in 10.0 mi Calm Calm - N/A   Clear
4:55 PM 56.8 °F - 32.0 °F 39% 30.14 in 10.0 mi South 3.5 mph - N/A   Clear
5:15 PM 55.0 °F - 33.3 °F 44% 30.14 in 10.0 mi South 3.5 mph - N/A   Clear
5:35 PM 54.0 °F - 32.9 °F 45% 30.14 in 10.0 mi South 3.5 mph - N/A   Clear
5:55 PM 53.1 °F - 33.1 °F 47% 30.14 in 10.0 mi South 3.5 mph - N/A   Clear
6:15 PM 49.8 °F - 33.4 °F 53% 30.14 in 10.0 mi SSE 4.6 mph - N/A   Clear
6:35 PM 49.3 °F - 33.3 °F 54% 30.15 in 10.0 mi SSE 5.8 mph - N/A   Clear
6:55 PM 45.7 °F 44.4 °F 34.2 °F 64% 30.15 in 10.0 mi SSE 3.5 mph - N/A   Clear
7:15 PM 46.0 °F 43.9 °F 33.6 °F 62% 30.15 in 10.0 mi SSE 4.6 mph - N/A   Clear
7:35 PM 42.3 °F 38.6 °F 32.7 °F 69% 30.15 in 10.0 mi SSE 5.8 mph - N/A   Clear
7:55 PM 41.0 °F 36.4 °F 32.9 °F 73% 30.15 in 10.0 mi South 6.9 mph - N/A   Clear
8:15 PM 42.8 °F 38.6 °F 33.6 °F 70% 30.16 in 10.0 mi South 6.9 mph - N/A   Clear
8:35 PM 40.3 °F 34.9 °F 32.4 °F 73% 30.15 in 10.0 mi South 8.1 mph - N/A   Clear
8:55 PM 39.2 °F 34.2 °F 32.4 °F 76% 30.15 in 10.0 mi South 6.9 mph - N/A   Clear
9:15 PM 39.6 °F 35.4 °F 32.4 °F 75% 30.16 in 10.0 mi SSE 5.8 mph - N/A   Clear
9:35 PM 38.5 °F 33.4 °F 32.2 °F 78% 30.15 in 10.0 mi SSE 6.9 mph - N/A   Clear
9:55 PM 38.7 °F 32.9 °F 32.4 °F 78% 30.15 in 10.0 mi South 8.1 mph - N/A   Clear
10:15 PM 40.5 °F 35.8 °F 33.1 °F 75% 30.15 in 10.0 mi SSE 6.9 mph - N/A   Clear
10:35 PM 38.5 °F 32.7 °F 32.0 °F 78% 30.14 in 10.0 mi South 8.1 mph - N/A   Clear
10:55 PM 38.3 °F 32.5 °F 32.0 °F 78% 30.14 in 10.0 mi South 8.1 mph - N/A   Clear
11:15 PM 38.7 °F 33.6 °F 32.9 °F 80% 30.14 in 10.0 mi South 6.9 mph - N/A   Clear
11:35 PM 37.2 °F 30.6 °F 32.2 °F 82% 30.14 in 10.0 mi South 9.2 mph - N/A   Clear
11:55 PM 41.0 °F 35.2 °F 34.0 °F 76% 30.14 in 10.0 mi South 9.2 mph - N/A   Clear